This is the latest recevied weather packets stored in our database for station/object OK1OBR-13. If no packets are shown the sender has not sent any weather packets the latest 1 day(s).
| Time | Temp. | Humidity | Pressure | Rain* | Wind** | Luminosity | Snow |
|---|---|---|---|---|---|---|---|
| 1777965902 | 15° C | 52% | 931 hPa | 0 mm | 0.89 m/s, 185° | - | - |
| 1777965841 | 15° C | 55% | 931.3 hPa | 0 mm | 0.45 m/s, 142° | - | - |
| 1777965781 | 15° C | 53% | 931.4 hPa | 0 mm | 0.89 m/s, 186° | - | - |
| 1777965721 | 15° C | 54% | 931.2 hPa | 0 mm | 0.89 m/s, 167° | - | - |
| 1777965660 | 15° C | 51% | 931.3 hPa | 0 mm | 0.45 m/s, 139° | - | - |
| 1777965602 | 15° C | 53% | 931.1 hPa | 0 mm | 0.89 m/s, 148° | - | - |
| 1777965543 | 15° C | 52% | 931.3 hPa | 0 mm | 0.89 m/s, 144° | - | - |
| 1777965481 | 15° C | 51% | 931.1 hPa | 0 mm | 0.45 m/s, 163° | - | - |
| 1777965421 | 15° C | 51% | 931.2 hPa | 0 mm | 1.34 m/s, 169° | - | - |
| 1777965361 | 15° C | 52% | 931.2 hPa | 0 mm | 1.34 m/s, 152° | - | - |
| 1777965301 | 15° C | 52% | 931.2 hPa | 0 mm | 0.89 m/s, 156° | - | - |
| 1777965241 | 15° C | 52% | 931.3 hPa | 0 mm | 0.45 m/s, 148° | - | - |
| 1777965181 | 15° C | 55% | 931.2 hPa | 0 mm | 0.45 m/s, 135° | - | - |
| 1777965121 | 15° C | 54% | 931.2 hPa | 0 mm | 0.45 m/s, 163° | - | - |
| 1777965062 | 15° C | 53% | 931.2 hPa | 0 mm | 0.45 m/s, 198° | - | - |
| 1777965002 | 15° C | 55% | 931.2 hPa | 0 mm | 0.89 m/s, 188° | - | - |
| 1777964941 | 15° C | 53% | 931.2 hPa | 0 mm | 0.89 m/s, 214° | - | - |
| 1777964881 | 15° C | 53% | 931.1 hPa | 0 mm | 0.45 m/s, 186° | - | - |
| 1777964821 | 15° C | 53% | 931.2 hPa | 0 mm | 0.89 m/s, 160° | - | - |
| 1777964763 | 15° C | 51% | 931.2 hPa | 0 mm | 0.89 m/s, 230° | - | - |
| 1777964701 | 15° C | 52% | 931.3 hPa | 0 mm | 0.89 m/s, 211° | - | - |
| 1777964642 | 15° C | 51% | 931.1 hPa | 0 mm | 0.89 m/s, 180° | - | - |
| 1777964581 | 15° C | 51% | 931.2 hPa | 0 mm | 0.89 m/s, 192° | - | - |
| 1777964521 | 15° C | 53% | 931.3 hPa | 0 mm | 0.89 m/s, 203° | - | - |
| 1777964462 | 15° C | 52% | 931.1 hPa | 0 mm | 0.89 m/s, 143° | - | - |
* Rain since midnight (hover to see other rain measurements)
** Current wind speed in m/s (hover to see current wind gust speed)